Terug naar catalogus

STARLINK-11274

ActiefCommunicatieVLEO
NORAD 61001·PAYLOAD·🇺🇸 United States

Gelanceerd Sep 5, 2024 vanaf Cape Canaveral Space Force Station

Loading…

Volgende Passages (komende 24 uur)

TLE

VersSource: CelesTrak SupGP

Epoch: Sep 15, 2026, 03:32 UTC

1 61001C 24158M   26258.14770833 -.00083917  00000+0 -69080-3 0  2587
2 61001  53.1571  67.2040 0001002  88.3893 231.2680 15.69767088    13

Volg STARLINK-11274 in realtime met AllMySat

Download on the App Store